Location: R�serve Fauniques des Laurentides
(47.3100°N, 71.1900°W)
Time: 03:26:15
(UTC-05:00)

Cosmos 1674 - Visible Passes

Search period start: 23 January 2017 00:00
Search period end: 02 February 2017 00:00
Orbit: 500 x 522 km, 82.5° (Epoch: 22 January)

Date Brightness Start Highest point End Pass type
(mag) Time Alt. Az. Time Alt. Az. Time Alt. Az.
25 Jan 5.8 18:00:45 10° W 18:02:03 11° WNW 18:03:21 10° NW visible
26 Jan 5.7 17:43:35 10° W 17:45:38 14° WNW 17:47:41 10° NW visible
27 Jan 5.5 17:26:41 10° WSW 17:29:14 17° WNW 17:31:47 10° NNW visible
28 Jan 5.4 17:09:56 10° WSW 17:12:50 20° WNW 17:15:46 10° NNW visible
